Regional Weather Roundup
Issued by NWS State College, PA

Home | Current Version | Previous Version | Graphics & Text | Print | Product List | Glossary On
Versions: 1 2 3 4 5 6 7 8 9 10 11 12 13 14 15 16 17 18 19 20 21 22 23 24 25 26 27 28 29 30 31 32 33 34 35 36 37 38 39 40 41 42 43 44 45 46 47 48 49 50
000
ASUS41 KCTP 290310
RWRCTP

REGIONAL WEATHER ROUNDUP
NATIONAL WEATHER SERVICE STATE COLLEGE PA
1100 PM EDT SAT MAY 28 2016

Note: "fair" indicates few or no clouds below 12,000 feet with no
significant weather and/or obstructions to visibility.

* = STATION THAT DOES NOT REPORT PRECIPITATION /E.G. RAIN...SNOW...ETC/
    THUNDER OR FOG.

PAZ002>004-007>009-013>016-020>023-029>032-290400-
WESTERN PENNSYLVANIA

CITY           SKY/WX    TMP DP  RH WIND       PRES   REMARKS
ERIE           PTCLDY    73  66  78 SW5       30.08F
MEADVILLE      PTCLDY    72  67  84 SW5       30.13R
FRANKLIN*      PTCLDY    66  63  88 E6        30.16S
NEW CASTLE     FAIR      74  65  73 CALM      30.13R
BEAVER COUNTY  NOT AVBL
BUTLER*        CLOUDY    73  64  73 CALM      30.16R
PITTSBURGH INT CLOUDY    79  63  57 CALM      30.12R
PITTSBURGH     PTCLDY    75  62  64 SE6       30.13R
INDIANA*       FOG       70  66  88 W6G21     30.19R VSB 3/4
LATROBE        CLEAR     68  68 100 CALM      30.15F
WASHINGTON CO* CLOUDY    70  66  88 CALM      30.14S
$$

PAZ004>006-010>012-017>019-024>028-033>037-041-042-045-046-049>053-290400-
CENTRAL PENNSYLVANIA

CITY           SKY/WX    TMP DP  RH WIND       PRES   REMARKS
BRADFORD       FOG       64  63  96 SE3       30.18S VSB 1/2
DUBOIS         CLOUDY    74  64  71 S3        30.15S
CLEARFIELD     CLOUDY    71  64  78 N3        30.15S
JOHNSTOWN      CLOUDY    70  62  76 W9        30.20R
ALTOONA        CLOUDY    75  62  64 S6        30.17R
STATE COLLEGE  CLOUDY    75  66  75 SW3       30.15R
WILLIAMSPORT   PTCLDY    74  67  78 CALM      30.09S
SELINSGROVE    CLOUDY    73  68  84 CALM      30.12R
FT INDIANTOWN  NOT AVBL
CAPITAL CITY   MOCLDY    79  64  60 S7        30.12R
HARRISBURG     MOCLDY    78  65  63 S8        30.12R
YORK           CLEAR     75  64  68 S5        30.14R
$$

PAZ038>040-043-044-047-048-054-055-060>062-067>071-290400-
EASTERN PENNSYLVANIA

CITY           SKY/WX    TMP DP  RH WIND       PRES   REMARKS
SCRANTON       CLEAR     76  67  73 CALM      30.13S
MOUNT POCONO   CLOUDY    69  65  86 W3        30.19S
ALLENTOWN      CLEAR     77  63  61 SW3       30.13S
QUAKERTOWN*    CLEAR     73  64  73 CALM      30.16S
READING        PTCLDY    79  63  57 S6        30.12S
LANCASTER      CLOUDY    74  62  66 VRB5      30.14R
COATESVILLE    CLEAR     73  64  73 CALM      30.17F
POTTSTOWN      CLEAR     73  66  78 CALM      30.15F
BLUE BELL      CLEAR     72  63  73 S5        30.14F
DOYLESTOWN     CLEAR     75  63  66 S5        30.14S
WILLOW GROVE   NOT AVBL
NORTH PHILA    CLEAR     78  58  49 S6        30.16S
PHILADELPHIA   PTCLDY    74  58  57 S6        30.15S
$$



USA.gov is the U.S. government's official web portal to all federal, state and local government web resources and services.